Weather History for Colorado Springs, CO

Change the Weather History Date:

Thursday, October 25, 2012

  Actual Average Record
Temperature  
Mean Temperature 30 °F 46 °F  
Max Temperature 35 °F 60 °F 79 °F (1959)
Min Temperature 25 °F 33 °F 15 °F (1997)
Degree Days  
Heating Degree Days 35 19  
Month to date heating degree days 357 366  
Since 1 July heating degree days 473 556  
Cooling Degree Days 0 0  
Month to date cooling degree days 0 0  
Year to date cooling degree days 873 454  
Moisture  
Dew Point 25 °F    
Average Humidity 82    
Maximum Humidity 100    
Minimum Humidity 64    
Precipitation  
Precipitation 0.07 in 0.02 in 0.66 in (1997)
Month to date precipitation 0.14 0.68  
Year to date precipitation 7.83 15.66  
Snow  
Snow T in 0.20 in 13.90 in (1997)
Month to date snowfall T 2.2  
Since 1 July snowfall T 2.4  
Since 1 September snowfall T 2.4  
Snow Depth 0.00 in    
Sea Level Pressure  
Sea Level Pressure 30.21 in    
Wind  
Wind Speed 10 mph (SSE)    
Max Wind Speed 29 mph    
Max Gust Speed 39 mph    
Visibility 6 miles    
Events Snow    
T = Trace of Precipitation, MM = Missing Value Source: NWS Daily Summary

Daily Weather History Graph

Daily Weather History Graph

Search for Another Location

Airport:

Trip Planner

Search our weather history database for the weather conditions in past years. The results will help you decide how hot, cold, wet, or windy it might be!

Date:

Astronomy

Oct. 25, 2012 Rise Set
Actual Time 7:18 AM MDT 6:06 PM MDT
Civil Twilight 6:51 AM MDT 6:33 PM MDT
Nautical Twilight 6:20 AM MDT 7:04 PM MDT
Astronomical Twilight 5:49 AM MDT 7:35 PM MDT
Moon 3:51 PM MDT (10/25) 3:20 AM MDT (10/25)
Length of Visible Light 11h 41m
Length of Day
10h 47m
Waxing Gibbous, 85% of the Moon is Illuminated
Oct 25
Waxing Gibbous
Oct 29
Full
Nov 6
Last Quarter
Nov 13
New
Nov 20
First Quarter

Hourly Weather History & Observations

Time (MDT) Temp. Windchill Dew Point Humidity Pressure Visibility Wind Dir Wind Speed Gust Speed Precip Events Conditions
12:54 AM 33.1 °F 20.3 °F 33.1 °F 100% 29.94 in 8.0 mi NNW 24.2 mph 29.9 mph N/A   Overcast
1:54 AM 30.9 °F 19.8 °F 24.1 °F 76% 30.00 in 10.0 mi NNW 16.1 mph 25.3 mph N/A   Mostly Cloudy
2:54 AM 30.0 °F 19.5 °F 23.0 °F 75% 30.01 in 10.0 mi NNW 13.8 mph 25.3 mph N/A   Scattered Clouds
3:54 AM 28.9 °F 16.5 °F 23.0 °F 78% 30.04 in 10.0 mi NNW 18.4 mph 27.6 mph N/A   Partly Cloudy
4:54 AM 28.0 °F 17.0 °F 23.0 °F 81% 30.08 in 10.0 mi North 13.8 mph - N/A   Mostly Cloudy
5:06 AM 28.4 °F 16.2 °F 23.0 °F 80% 30.09 in 10.0 mi North 17.3 mph 24.2 mph N/A   Scattered Clouds
5:54 AM 27.0 °F 14.7 °F 21.9 °F 81% 30.12 in 10.0 mi North 16.1 mph - N/A   Partly Cloudy
7:54 AM 28.0 °F 20.0 °F 21.9 °F 78% 30.20 in 10.0 mi North 8.1 mph - N/A   Scattered Clouds
8:54 AM 30.9 °F - 24.1 °F 76% 30.22 in 10.0 mi Calm Calm - N/A   Scattered Clouds
9:54 AM 34.0 °F - 25.0 °F 70% 30.22 in 10.0 mi Calm Calm - N/A   Mostly Cloudy
10:54 AM 30.9 °F 20.7 °F 25.0 °F 79% 30.26 in 10.0 mi South 13.8 mph - N/A   Mostly Cloudy
11:54 AM 33.1 °F 24.4 °F 26.1 °F 75% 30.24 in 10.0 mi South 11.5 mph 18.4 mph N/A   Overcast
12:54 PM 33.1 °F 25.5 °F 25.0 °F 72% 30.23 in 10.0 mi South 9.2 mph - N/A   Overcast
1:54 PM 32.0 °F 27.5 °F 26.1 °F 79% 30.24 in 6.0 mi SSE 4.6 mph - 0.00 in Snow Light Snow
2:06 PM 32.0 °F 24.8 °F 26.6 °F 80% 30.15 in 3.0 mi South 8.1 mph - 0.00 in Snow Light Snow
2:54 PM 33.1 °F 28.7 °F 26.1 °F 75% 30.24 in 4.0 mi South 4.6 mph - 0.00 in Snow Light Snow
3:54 PM 34.0 °F 27.2 °F 25.0 °F 70% 30.24 in 8.0 mi South 8.1 mph - 0.00 in Snow Light Snow
4:04 PM 33.8 °F 28.6 °F 24.8 °F 70% 30.15 in 9.0 mi SSE 5.8 mph - 0.00 in   Overcast
4:54 PM 34.0 °F 26.6 °F 23.0 °F 64% 30.26 in 10.0 mi South 9.2 mph - 0.00 in   Overcast
5:54 PM 34.0 °F 25.0 °F 23.0 °F 64% 30.28 in 8.0 mi SSE 12.7 mph - N/A   Overcast
6:54 PM 30.9 °F 22.2 °F 25.0 °F 79% 30.33 in 4.0 mi SE 10.4 mph - 0.00 in   Haze
7:18 PM 30.2 °F 21.3 °F 26.6 °F 86% 30.22 in 5.0 mi ESE 10.4 mph - 0.00 in Snow Light Snow
7:34 PM 30.2 °F 19.8 °F 26.6 °F 86% 30.23 in 3.0 mi SE 13.8 mph - 0.01 in Snow Light Snow
7:54 PM 30.0 °F 20.5 °F 27.0 °F 88% 30.35 in 4.0 mi SE 11.5 mph - 0.01 in Snow Light Snow
8:05 PM 30.2 °F 21.9 °F 28.4 °F 93% 30.23 in 2.5 mi ESE 9.2 mph - 0.00 in Snow Light Snow
8:21 PM 30.2 °F 20.8 °F 26.6 °F 86% 30.23 in 0.8 mi SE 11.5 mph - N/A Snow Light Snow
8:54 PM 28.9 °F 20.4 °F 27.0 °F 92% 30.35 in 1.0 mi SE 9.2 mph - 0.02 in Snow Light Snow
9:44 PM 28.4 °F 18.0 °F 26.6 °F 93% 30.24 in 2.0 mi SSE 12.7 mph - 0.01 in Snow Light Snow
9:54 PM 28.9 °F 18.2 °F 27.0 °F 92% 30.33 in 2.5 mi SSE 13.8 mph - 0.02 in Snow Light Snow
10:06 PM 28.4 °F 18.5 °F 26.6 °F 93% 30.25 in 1.5 mi SSE 11.5 mph - 0.00 in Snow Light Snow
10:54 PM 28.9 °F 19.8 °F 27.0 °F 92% 30.36 in 1.8 mi SSE 10.4 mph - 0.01 in Snow Light Snow
11:54 PM 28.9 °F 19.8 °F 27.0 °F 92% 30.35 in 2.0 mi South 10.4 mph - 0.00 in Snow Light Snow